Hourly Data Report for October 30, 2016

All times are specified in Local Standard Time (LST). Add 1 hour to adjust for Daylight Saving Time where and when it is observed.

CORAL HARBOUR A
NUNAVUT

64°11'36.000" N
83°21'34.000" W
62.20 m
2301002
71915
YZS

Download Data

Hourly Data (October 2016)
Hourly Data Report for October 30, 2016
Temp Definition
°C
Dew Point Temp Definition
°C
Rel Hum Definition
%
Wind Dir Definition
10's deg

Wind Spd Definition
km/h
Visibility Definition
km
Stn Press Definition
kPa
Hmdx Definition


Wind Chill Definition


Weather Definition


TIME
00:00 Legend Double Dagger -21.0 -23.7 79 35 23 24.1 98.92   -32 LegendNANA
01:00 Legend Double Dagger -17.0 -19.5 81 1 28 24.1 98.91   -28 Mainly Clear
02:00 Legend Double Dagger -13.8 -15.8 85 36 23 24.1 98.92   -23 LegendNANA
03:00 Legend Double Dagger -11.4 -14.0 81 33 24 24.1 98.93   -20 LegendNANA
04:00 Legend Double Dagger -11.8 -14.6 80 36 32 24.1 98.91   -22 Mostly Cloudy
05:00 Legend Double Dagger -11.7 -15.0 77 35 29 24.1 98.94   -22 LegendNANA
06:00 Legend Double Dagger -13.1 -16.0 79 33 34 24.1 98.98   -24 LegendNANA
07:00 Legend Double Dagger -12.2 -14.8 81 34 39 24.1 99.01   -24 Mainly Clear
08:00 Legend Double Dagger -12.2 -14.5 83 34 40 19.3 99.04   -24 Blowing Snow
09:00 Legend Double Dagger -13.9 -16.8 79 30 19 24.1 99.10   -23 LegendNANA
10:00 Legend Double Dagger -13.8 -17.2 76 34 31 24.1 99.06   -25 Mainly Clear
11:00 Legend Double Dagger -14.0 -17.4 76 30 18 24.1 99.06   -22 LegendNANA
12:00 Legend Double Dagger -13.8 -17.5 74 33 18 24.1 99.08   -22 LegendNANA
13:00 Legend Double Dagger -12.5 -16.7 71 32 16 24.1 99.09   -20 Clear
14:00 Legend Double Dagger -13.1 -16.3 77 32 20 24.1 99.15   -22 LegendNANA
15:00 Legend Double Dagger -13.0 -15.8 80 31 24 24.1 99.15   -22 LegendNANA
16:00 Legend Double Dagger -16.1 -18.4 83 33 15 24.1 99.14   -24 Clear
17:00 Legend Double Dagger -16.5 -17.8 90 26 6 24.1 99.17   -21 LegendNANA
18:00 Legend Double Dagger -17.6 -19.4 86 32 5 24.1 99.19   -22 LegendNANA
19:00 Legend Double Dagger -17.5 -19.5 85 33 12 24.1 99.18   -25 Ice Crystals
20:00 Legend Double Dagger -18.9 -21.1 83 34 17 24.1 99.16   -28 Ice Crystals
21:00 Legend Double Dagger -19.0 -21.4 82 34 20 24.1 99.19   -29 Ice Crystals
22:00 Legend Double Dagger -18.9 -21.0 84 35 31 24.1 99.18   -31 Ice Crystals
23:00 Legend Double Dagger -19.1 -21.6 81 34 22 24.1 99.22   -30 Ice Crystals

Notes on Data Quality.

Legend

  • E = Estimated
  • M = Missing
  • NA = Not Available
  • ‡ = Partner data that is not subject to review by the National Climate Archives
Date modified: